Torna al catalogo

COSMOS 2251 DEB

AttivoLEO
NORAD 34053·DEBRIS·🇷🇺 Russia

Lanciato Jun 16, 1993 da Plesetsk Cosmodrome

Loading…

Prossimi Passaggi (prossime 24 ore)

TLE

AggiornatoSource: Space-Track

Epoca: Sep 14, 2026, 02:41 UTC

1 34053U 93036JQ  26257.11203361  .00000166  00000-0  17384-3 0  9994
2 34053  73.8454 158.2594 0423366 261.0119  94.2856 13.49413731863980

Traccia COSMOS 2251 DEB in tempo reale con AllMySat

Download on the App Store